Radioactive Concentration measured by Seawater Radiation Monitor near Fukushima Daiichi Nuclear Power Station
Date,Time,Cs137(Bq/L),Cs134(Bq/L),Total β(Bq/L)
2017/02/21,00:00,0.99,0.12,15
2017/02/21,00:10,0.94,0.11,17
2017/02/21,00:20,0.95,0.11,17
2017/02/21,00:30,0.99,0.11,15
2017/02/21,00:40,1.0,0.12,15
2017/02/21,00:50,0.96,0.11,16
2017/02/21,01:00,0.96,0.11,15
2017/02/21,01:10,0.99,0.11,14
2017/02/21,01:20,1.0,0.11,12
2017/02/21,01:30,1.0,0.10,10
2017/02/21,01:40,1.0,0.11,9.5
2017/02/21,01:50,1.1,0.12,9.6
2017/02/21,02:00,1.1,0.13,ND
2017/02/21,02:10,1.1,0.12,ND
2017/02/21,02:20,1.0,0.12,10
2017/02/21,02:30,1.0,0.13,14
2017/02/21,02:40,1.0,0.13,13
2017/02/21,02:50,0.99,0.12,11
2017/02/21,03:00,0.98,0.098,11
2017/02/21,03:10,0.99,0.099,12
2017/02/21,03:20,0.98,0.10,12
2017/02/21,03:30,0.96,0.10,12
2017/02/21,03:40,0.98,0.092,15
2017/02/21,03:50,0.99,0.096,18
2017/02/21,04:00,0.97,0.10,19
2017/02/21,04:10,0.96,0.11,18
2017/02/21,04:20,0.96,0.11,18
2017/02/21,04:30,0.99,0.10,16
2017/02/21,04:40,0.98,0.11,14
2017/02/21,04:50,0.97,0.11,12
2017/02/21,05:00,0.97,0.12,15
2017/02/21,05:10,0.93,0.13,17
2017/02/21,05:20,0.93,0.13,16
2017/02/21,05:30,0.92,0.12,16
2017/02/21,05:40,0.91,0.12,15
2017/02/21,05:50,0.90,0.11,16
2017/02/21,06:00,0.90,0.11,11
2017/02/21,06:10,0.92,0.11,10
2017/02/21,06:20,0.92,0.10,12
2017/02/21,06:30,0.94,0.12,13
2017/02/21,06:40,0.95,0.11,12
2017/02/21,06:50,0.98,0.11,12
2017/02/21,07:00,0.98,0.11,13
2017/02/21,07:10,1.0,0.10,11
2017/02/21,07:20,0.91,0.11,ND
2017/02/21,07:30,1.0,0.11,ND
2017/02/21,07:40,0.99,0.096,9.5
2017/02/21,07:50,0.91,0.11,11
2017/02/21,08:00,0.92,0.12,11
2017/02/21,08:10,0.99,0.13,12
2017/02/21,08:20,0.99,0.13,14
2017/02/21,08:30,0.99,0.13,14
2017/02/21,08:40,0.99,0.12,14
2017/02/21,08:50,0.96,0.12,11
2017/02/21,09:00,0.96,0.11,11
2017/02/21,09:10,0.98,0.096,9.7
2017/02/21,09:20,0.99,0.092,9.7
2017/02/21,09:30,0.99,0.088,9.9
2017/02/21,09:40,0.95,0.093,9.2
2017/02/21,09:50,0.92,0.094,12
2017/02/21,10:00,0.89,0.092,13
2017/02/21,10:10,0.87,0.092,13
2017/02/21,10:20,0.83,0.093,14
2017/02/21,10:30,0.82,0.094,14
2017/02/21,10:40,0.84,0.086,16
2017/02/21,10:50,0.89,0.090,14
2017/02/21,11:00,0.88,0.090,13
2017/02/21,11:10,0.86,0.10,14
2017/02/21,11:20,0.88,0.088,15
2017/02/21,11:30,0.83,0.087,15
2017/02/21,11:40,0.88,0.081,13
2017/02/21,11:50,0.89,0.090,10
2017/02/21,12:00,0.92,0.088,11
2017/02/21,12:10,0.95,0.085,10
2017/02/21,12:20,1.0,0.10,10
2017/02/21,12:30,1.0,0.10,11
2017/02/21,12:40,1.0,0.11,10
2017/02/21,12:50,1.0,0.11,13
2017/02/21,13:00,1.0,0.10,14
2017/02/21,13:10,1.0,0.11,14
2017/02/21,13:20,1.0,0.11,14
2017/02/21,13:30,1.0,0.11,16
2017/02/21,13:40,0.99,0.11,14
2017/02/21,13:50,1.0,0.11,12
2017/02/21,14:00,1.0,0.12,10
2017/02/21,14:10,1.0,0.12,10
2017/02/21,14:20,1.0,0.12,9.3
2017/02/21,14:30,1.1,0.11,ND
2017/02/21,14:40,1.1,0.12,11
2017/02/21,14:50,1.0,0.12,14
2017/02/21,15:00,1.0,0.12,16
2017/02/21,15:10,1.1,0.12,15
2017/02/21,15:20,1.1,0.12,10
2017/02/21,15:30,1.1,0.12,11
2017/02/21,15:40,1.1,0.12,10
2017/02/21,15:50,1.1,0.13,ND
2017/02/21,16:00,1.1,0.12,ND
2017/02/21,16:10,1.1,0.12,ND
2017/02/21,16:20,1.1,0.12,12
2017/02/21,16:30,1.1,0.12,11
2017/02/21,16:40,1.1,0.12,ND
2017/02/21,16:50,1.0,0.11,11
2017/02/21,17:00,1.0,0.13,12
2017/02/21,17:10,0.97,0.13,10
2017/02/21,17:20,0.92,0.12,10
2017/02/21,17:30,0.84,0.13,ND
2017/02/21,17:40,0.83,0.13,9.9
2017/02/21,17:50,0.82,0.11,9.6
2017/02/21,18:00,0.83,0.11,9.3
2017/02/21,18:10,0.83,0.11,9.6
2017/02/21,18:20,0.84,0.10,9.3
2017/02/21,18:30,0.90,0.081,10
2017/02/21,18:40,0.92,0.086,9.2
2017/02/21,18:50,0.91,0.10,ND
2017/02/21,19:00,0.93,0.11,ND
2017/02/21,19:10,0.94,0.12,ND
2017/02/21,19:20,0.97,0.11,ND
2017/02/21,19:30,0.93,0.12,ND
2017/02/21,19:40,0.93,0.12,ND
2017/02/21,19:50,0.93,0.11,9.5
2017/02/21,20:00,0.91,0.11,11
2017/02/21,20:10,0.89,0.10,ND
2017/02/21,20:20,0.88,0.11,ND
2017/02/21,20:30,0.89,0.11,11
2017/02/21,20:40,0.90,0.11,13
2017/02/21,20:50,0.96,0.10,13
2017/02/21,21:00,0.98,0.10,12
2017/02/21,21:10,0.98,0.11,13
2017/02/21,21:20,1.0,0.11,12
2017/02/21,21:30,1.0,0.11,13
2017/02/21,21:40,1.0,0.12,10
2017/02/21,21:50,0.96,0.13,9.7
2017/02/21,22:00,0.94,0.13,9.7
2017/02/21,22:10,0.93,0.12,ND
2017/02/21,22:20,0.89,0.12,ND
2017/02/21,22:30,0.87,0.12,ND
2017/02/21,22:40,0.87,0.11,ND
2017/02/21,22:50,0.87,0.094,ND
2017/02/21,23:00,0.85,0.093,ND
2017/02/21,23:10,0.85,0.091,ND
2017/02/21,23:20,0.85,0.091,ND
2017/02/21,23:30,0.85,0.081,ND
2017/02/21,23:40,0.83,0.083,ND
2017/02/21,23:50,0.84,0.089,ND
